631  
ASUS43 KJKL 180010  
RWRJKL  
 
EAST KENTUCKY HOURLY WEATHER ROUNDUP  
NATIONAL WEATHER SERVICE JACKSON KY  
800 PM EDT TUE JUL 17 2018  
 
NOTE: "FAIR" INDICATES FEW OR NO CLOUDS BELOW 12,000 FEET WITH  
NO SIGNIFICANT WEATHER AND/OR S TO VISIBILITY
.  
 
* THESE REPORTS ARE NOT UNDER NWS QUALITY CONTROL AND MAY NOT  
REPORT WEATHER SUCH AS PRECIPITATION AND FOG.
 
 
KYZ079-080-083-085-087-088-110-112-115-119-120-180100   
..EASTERN KENTUCKY
 
 
 
CITY SKY/WX TMP DP RH WIND PRES REMARKS
 
JACKSON N/A 80 61 52 VRB3 30.00R  
6HR MIN TEMP: 73; 6HR MAX TEMP: 83; 6HR PCP: 0.13;  
 
LONDON N/A 83 69 62 N8 29.98S  
6HR MIN TEMP: 73; 6HR MAX TEMP: 89; 6HR PCP: 0.15;  
 
SOMERSET* N/A 81 63 54 NE8 29.98S  
MONTICELLO* N/A 83 72 69 MISG N/A  
6HR MIN TEMP: 83; 6HR MAX TEMP: 89;  
 
WILLIAMSBURG* N/A 77 73 88 CALM 29.99R  
MIDDLESBORO* N/A 78 71 78 CALM 30.00R  
6HR MIN TEMP: 76; 6HR MAX TEMP: 89;  
 
HARLAN APT* N/A 78 70 75 MISG 30.01S  
PIKE CO APT* N/A 77 71 82 CALM 29.99S  
BIG SANDY APT* N/A 79 77 94 CALM 29.99R  
6HR MIN TEMP: 76; 6HR MAX TEMP: 86;  
 
MOREHEAD APT* N/A 81 57 44 N3 30.00R  
ASHLAND* N/A 81 66 60 CALM 29.96R  

 
 
KYZ035-036-041-042-044-050-067-078-099-180100   
..CENTRAL KENTUCKY
 
 
 
CITY SKY/WX TMP DP RH WIND PRES REMARKS
 
MT STERLING* N/A 82 63 51 CALM 30.00R  
FLEMING/MASON* N/A 82 59 44 N7 30.00R  
DANVILLE* N/A 81 59 47 N5 30.01R  
LEXINGTON N/A 83 59 44 N6 29.99R  
6HR MIN TEMP: 83; 6HR MAX TEMP: 89;  
 
FRANKFORT N/A 85 61 44 NW5 29.98R  
6HR MIN TEMP: 85; 6HR MAX TEMP: 90;  
 
LOUISVILLE PTSUNNY 85 59 41 N9 29.98R  
6HR MIN TEMP: 85; 6HR MAX TEMP: 90;  
 
LEBANON* N/A 82 61 47 N7 29.99R  
GLASGOW* N/A 83 67 58 N9 29.98R  
BOWLING GREEN N/A 87 70 56 N7 29.96R HX 92  
6HR MIN TEMP: 87; 6HR MAX TEMP: 94;  
 

 
 
KYZ091>093-OHZ055-061-077-WVZ005-015-034-035-042-180100   
..SOUTHERN OHIO/WEST VIRGINIA
 
 
 
CITY SKY/WX TMP DP RH WIND PRES REMARKS
 
COVINGTON PTSUNNY 85 54 34 N13 29.99R  
COLUMBUS MOCLDY 80 51 36 NW13 29.97R  
DAYTON N/A 80 59 48 N9 30.01R  
WILMINGTON N/A 81 60 48 N10 29.99R  
HUNTINGTON N/A 82 59 45 N7 29.96R  
CHARLESTON N/A 81 62 52 NW3 29.95R  
PINEVILLE* N/A 72 70 95 MISG 30.05R FOG  
BECKLEY N/A 74 66 76 NW6 30.03R  
BLUEFIELD N/A 70 66 87 W3 30.06R  
LOGAN CO APT* N/A 79 68 69 CALM 29.99R  

 
 
VAZ002-007-008-TNZ017-027-036-066-071-180100   
..SOUTHWEST VIRGINIA/EAST TENNESSEE
 
 
 
CITY SKY/WX TMP DP RH WIND PRES REMARKS
 
WISE* MOCLDY 75 70 83 NW3 30.07S  
ABINGDON* LGT RAIN 75 73 93 CALM 30.03R  
BRISTOL MOCLDY 73 72 96 CALM 29.99F  
MORRISTOWN* MOCLDY 79 72 78 S5 29.99R  
SEVIERVILLE* PTCLDY 81 72 74 CALM 29.98R  
KNOXVILLE MOCLDY 81 76 84 NE5 29.97R  
LAFOLLETTE* CLEAR 79 70 73 CALM 30.02R  
OAK RIDGE MOCLDY 79 76 90 CALM 29.99R  
CROSSVILLE MOCLDY 78 69 73 CALM 30.03R  
NASHVILLE N/A 90 71 53 N9 29.95R HX 96  

 
   
..KEY TO REMARKS
 
 
VSB - VISIBILITY IN MILES  
WCI - WIND CHILL INDEX  
HX - HEAT INDEX  
 

 
 
 
CLICK HERE TO GO TO PREVIOUS BULLETINS.

The Nexlab KY Page Main Text Page